| time (UTC) | temp C | wind direction | speed KPH | gust KPH | rain 1hr cm | rain 24hr cm | rain mn cm | humidity % | barometer mb |
| 20260906223528 | 37 | 164 | 3.2 | 9.7 | 0.00 | 0.00 | 0.00 | 42 | 1011.6 |
| 20260906223112 | 37 | 139 | 3.2 | 8.0 | 0.00 | 0.00 | 0.00 | 42 | 1011.6 |
| 20260906222612 | 37 | 136 | 3.2 | 11.3 | 0.00 | 0.00 | 0.00 | 42 | 1011.6 |
| 20260906222033 | 37 | 122 | 4.8 | 9.7 | 0.00 | 0.00 | 0.00 | 42 | 1011.6 |
| 20260906221616 | 37 | 135 | 4.8 | 9.7 | 0.00 | 0.00 | 0.00 | 42 | 1011.7 |
| 20260906221116 | 37 | 107 | 3.2 | 12.9 | 0.00 | 0.00 | 0.00 | 42 | 1011.7 |
| 20260906220554 | 37 | 180 | 3.2 | 4.8 | 0.00 | 0.00 | 0.00 | 42 | 1011.6 |
| 20260906220120 | 37 | 103 | 3.2 | 9.7 | 0.00 | 0.00 | 0.00 | 42 | 1011.7 |
| 20260906215600 | 38 | 119 | 1.6 | 8.0 | 0.00 | 0.00 | 0.00 | 41 | 1011.7 |
| 20260906215035 | 38 | 185 | 1.6 | 4.8 | 0.00 | 0.00 | 0.00 | 40 | 1011.8 |
| 20260906214535 | 37 | 141 | 1.6 | 4.8 | 0.00 | 0.00 | 0.00 | 41 | 1011.9 |
| 20260906214034 | 38 | 179 | 3.2 | 8.0 | 0.00 | 0.00 | 0.00 | 40 | 1012.0 |
| 20260906213554 | 38 | 164 | 1.6 | 4.8 | 0.00 | 0.00 | 0.00 | 41 | 1012.0 |
| 20260906213025 | 38 | 151 | 1.6 | 4.8 | 0.00 | 0.00 | 0.00 | 41 | 1012.1 |
| 20260906212608 | 38 | 135 | 1.6 | 4.8 | 0.00 | 0.00 | 0.00 | 41 | 1012.1 |
| 20260906212048 | 38 | 195 | 3.2 | 8.0 | 0.00 | 0.00 | 0.00 | 41 | 1012.1 |
| 20260906211535 | 38 | 131 | 3.2 | 8.0 | 0.00 | 0.00 | 0.00 | 40 | 1012.2 |
| 20260906211034 | 37 | 159 | 1.6 | 4.8 | 0.00 | 0.00 | 0.00 | 40 | 1012.4 |
| 20260906210534 | 37 | 167 | 3.2 | 8.0 | 0.00 | 0.00 | 0.00 | 40 | 1012.5 |
| 20260906210035 | 37 | 158 | 4.8 | 9.7 | 0.00 | 0.00 | 0.00 | 43 | 1012.6 |
| 20260906205528 | 37 | 152 | 3.2 | 3.2 | 0.00 | 0.00 | 0.00 | 43 | 1012.6 |
| 20260906205112 | 36 | 160 | 3.2 | 4.8 | 0.00 | 0.00 | 0.00 | 44 | 1012.7 |
| 20260906204552 | 36 | 171 | 3.2 | 8.0 | 0.00 | 0.00 | 0.00 | 44 | 1012.6 |
| 20260906204035 | 36 | 125 | 3.2 | 9.7 | 0.00 | 0.00 | 0.00 | 44 | 1012.7 |
| 20260906203534 | 37 | 133 | 6.4 | 12.9 | 0.00 | 0.00 | 0.00 | 43 | 1012.7 |
| 20260906203035 | 37 | 130 | 4.8 | 14.5 | 0.00 | 0.00 | 0.00 | 43 | 1012.7 |
| 20260906202534 | 37 | 184 | 1.6 | 4.8 | 0.00 | 0.00 | 0.00 | 43 | 1012.9 |
| 20260906202140 | 37 | 174 | 3.2 | 8.0 | 0.00 | 0.00 | 0.00 | 42 | 1012.9 |
| 20260906201600 | 37 | 133 | 3.2 | 8.0 | 0.00 | 0.00 | 0.00 | 43 | 1013.0 |
| 20260906201055 | 37 | 176 | 3.2 | 11.3 | 0.00 | 0.00 | 0.00 | 42 | 1013.0 |
| 20260906200535 | 36 | 149 | 4.8 | 11.3 | 0.00 | 0.00 | 0.00 | 45 | 1013.0 |
| 20260906200035 | 37 | 177 | 4.8 | 16.1 | 0.00 | 0.00 | 0.00 | 43 | 1013.0 |
| 20260906195534 | 37 | 164 | 3.2 | 9.7 | 0.00 | 0.00 | 0.00 | 42 | 1013.2 |
| 20260906195025 | 37 | 158 | 3.2 | 9.7 | 0.00 | 0.00 | 0.00 | 43 | 1013.2 |
| 20260906194608 | 36 | 180 | 3.2 | 8.0 | 0.00 | 0.00 | 0.00 | 44 | 1013.2 |
| 20260906194048 | 37 | 146 | 3.2 | 4.8 | 0.00 | 0.00 | 0.00 | 45 | 1013.3 |
| 20260906193534 | 37 | 153 | 3.2 | 4.8 | 0.00 | 0.00 | 0.00 | 44 | 1013.3 |
| 20260906193035 | 37 | 134 | 4.8 | 14.5 | 0.00 | 0.00 | 0.00 | 44 | 1013.3 |
| 20260906192520 | 37 | 146 | 3.2 | 8.0 | 0.00 | 0.00 | 0.00 | 44 | 1013.4 |
| 20260906192104 | 37 | 180 | 3.2 | 4.8 | 0.00 | 0.00 | 0.00 | 42 | 1013.4 |
| 20260906191535 | 37 | 185 | 1.6 | 4.8 | 0.00 | 0.00 | 0.00 | 42 | 1013.5 |
| 20260906191034 | 37 | 171 | 3.2 | 4.8 | 0.00 | 0.00 | 0.00 | 43 | 1013.5 |
| 20260906190534 | 37 | 151 | 3.2 | 11.3 | 0.00 | 0.00 | 0.00 | 44 | 1013.5 |
| 20260906190035 | 37 | 196 | 1.6 | 4.8 | 0.00 | 0.00 | 0.00 | 45 | 1013.5 |
| 20260906185554 | 36 | 160 | 3.2 | 4.8 | 0.00 | 0.00 | 0.00 | 46 | 1013.6 |
| 20260906185034 | 37 | 175 | 3.2 | 8.0 | 0.00 | 0.00 | 0.00 | 44 | 1013.7 |
| 20260906184535 | 36 | 161 | 4.8 | 14.5 | 0.00 | 0.00 | 0.00 | 45 | 1013.7 |
| 20260906184034 | 36 | 139 | 4.8 | 9.7 | 0.00 | 0.00 | 0.00 | 47 | 1013.7 |
| 20260906183555 | 36 | 147 | 3.2 | 9.7 | 0.00 | 0.00 | 0.00 | 45 | 1013.8 |
| 20260906183035 | 36 | 157 | 3.2 | 4.8 | 0.00 | 0.00 | 0.00 | 45 | 1013.9 |
| 20260906182521 | 36 | 145 | 3.2 | 9.7 | 0.00 | 0.00 | 0.00 | 46 | 1013.9 |
| 20260906182104 | 36 | 158 | 3.2 | 4.8 | 0.00 | 0.00 | 0.00 | 46 | 1014.0 |
| 20260906181545 | 36 | 184 | 1.6 | 3.2 | 0.00 | 0.00 | 0.00 | 45 | 1014.1 |
| 20260906181034 | 36 | 127 | 3.2 | 8.0 | 0.00 | 0.00 | 0.00 | 44 | 1014.2 |
| 20260906180534 | 36 | 198 | 1.6 | 4.8 | 0.00 | 0.00 | 0.00 | 45 | 1014.3 |
| 20260906180035 | 36 | 158 | 1.6 | 4.8 | 0.00 | 0.00 | 0.00 | 47 | 1014.4 |
| 20260906175528 | 35 | 122 | 3.2 | 9.7 | 0.00 | 0.00 | 0.00 | 47 | 1014.5 |
| 20260906175112 | 35 | 137 | 4.8 | 12.9 | 0.00 | 0.00 | 0.00 | 47 | 1014.6 |
| 20260906174632 | 35 | 139 | 3.2 | 4.8 | 0.00 | 0.00 | 0.00 | 48 | 1014.7 |
| 20260906174034 | 35 | 104 | 4.8 | 14.5 | 0.00 | 0.00 | 0.00 | 48 | 1014.8 |
| 20260906173535 | 35 | 119 | 1.6 | 8.0 | 0.00 | 0.00 | 0.00 | 48 | 1014.7 |
| 20260906173035 | 35 | 132 | 4.8 | 14.5 | 0.00 | 0.00 | 0.00 | 48 | 1014.9 |
| 20260906172554 | 35 | 124 | 3.2 | 9.7 | 0.00 | 0.00 | 0.00 | 47 | 1014.9 |
| 20260906172120 | 35 | 165 | 3.2 | 8.0 | 0.00 | 0.00 | 0.00 | 47 | 1014.9 |
| 20260906171601 | 35 | 142 | 4.8 | 9.7 | 0.00 | 0.00 | 0.00 | 46 | 1014.9 |
| 20260906171034 | 35 | 134 | 3.2 | 8.0 | 0.00 | 0.00 | 0.00 | 50 | 1015.0 |
| 20260906170534 | 35 | 135 | 3.2 | 11.3 | 0.00 | 0.00 | 0.00 | 50 | 1015.1 |
| 20260906170035 | 34 | 155 | 1.6 | 4.8 | 0.00 | 0.00 | 0.00 | 53 | 1015.1 |
| 20260906165534 | 35 | 96 | 3.2 | 9.7 | 0.00 | 0.00 | 0.00 | 52 | 1015.1 |
| 20260906165034 | 35 | 162 | 3.2 | 8.0 | 0.00 | 0.00 | 0.00 | 51 | 1015.2 |
| 20260906164535 | 35 | 136 | 3.2 | 8.0 | 0.00 | 0.00 | 0.00 | 51 | 1015.3 |
| 20260906164034 | 35 | 173 | 3.2 | 3.2 | 0.00 | 0.00 | 0.00 | 51 | 1015.3 |
| 20260906163534 | 35 | 161 | 4.8 | 12.9 | 0.00 | 0.00 | 0.00 | 52 | 1015.4 |
| 20260906163034 | 35 | 174 | 1.6 | 8.0 | 0.00 | 0.00 | 0.00 | 53 | 1015.4 |
| 20260906162534 | 34 | 173 | 3.2 | 8.0 | 0.00 | 0.00 | 0.00 | 53 | 1015.3 |
| 20260906162120 | 34 | 179 | 1.6 | 3.2 | 0.00 | 0.00 | 0.00 | 55 | 1015.4 |
| 20260906161640 | 34 | 112 | 3.2 | 8.0 | 0.00 | 0.00 | 0.00 | 54 | 1015.2 |
| 20260906161040 | 34 | 177 | 1.6 | 3.2 | 0.00 | 0.00 | 0.00 | 54 | 1015.3 |
| 20260906160534 | 33 | 162 | 1.6 | 1.6 | 0.00 | 0.00 | 0.00 | 55 | 1015.4 |
| 20260906160055 | 33 | 154 | 3.2 | 8.0 | 0.00 | 0.00 | 0.00 | 55 | 1015.4 |
| 20260906155534 | 33 | 141 | 3.2 | 9.7 | 0.00 | 0.00 | 0.00 | 55 | 1015.4 |
| 20260906155034 | 33 | 119 | 3.2 | 4.8 | 0.00 | 0.00 | 0.00 | 54 | 1015.4 |
| 20260906154541 | 33 | 157 | 3.2 | 8.0 | 0.00 | 0.00 | 0.00 | 55 | 1015.2 |
| 20260906154048 | 33 | 152 | 3.2 | 4.8 | 0.00 | 0.00 | 0.00 | 57 | 1015.3 |
| 20260906153534 | 33 | 177 | 1.6 | 3.2 | 0.00 | 0.00 | 0.00 | 60 | 1015.3 |
| 20260906153035 | 32 | 145 | 1.6 | 3.2 | 0.00 | 0.00 | 0.00 | 61 | 1015.2 |
| 20260906152554 | 32 | 132 | 1.6 | 4.8 | 0.00 | 0.00 | 0.00 | 61 | 1015.1 |
| 20260906152052 | 32 | 118 | 1.6 | 3.2 | 0.00 | 0.00 | 0.00 | 63 | 1015.1 |
| 20260906151617 | 32 | 169 | 1.6 | 3.2 | 0.00 | 0.00 | 0.00 | 64 | 1015.2 |
| 20260906151116 | 32 | 169 | 1.6 | 3.2 | 0.00 | 0.00 | 0.00 | 64 | 1015.1 |
| 20260906150534 | 31 | 161 | 1.6 | 3.2 | 0.00 | 0.00 | 0.00 | 65 | 1014.9 |
| 20260906150035 | 31 | 165 | 1.6 | 1.6 | 0.00 | 0.00 | 0.00 | 67 | 1014.9 |
| 20260906145534 | 31 | 150 | 1.6 | 3.2 | 0.00 | 0.00 | 0.00 | 67 | 1014.9 |
| 20260906145034 | 31 | 104 | 1.6 | 4.8 | 0.00 | 0.00 | 0.00 | 67 | 1014.9 |
| 20260906144521 | 31 | 176 | 1.6 | 1.6 | 0.00 | 0.00 | 0.00 | 68 | 1014.8 |
| 20260906144104 | 31 | 151 | 1.6 | 3.2 | 0.00 | 0.00 | 0.00 | 68 | 1014.9 |
| 20260906143534 | 30 | 177 | 0.0 | 1.6 | 0.00 | 0.00 | 0.00 | 69 | 1014.8 |
| 20260906143035 | 30 | 176 | 1.6 | 1.6 | 0.00 | 0.00 | 0.00 | 69 | 1014.8 |
| 20260906142534 | 30 | 173 | 0.0 | 1.6 | 0.00 | 0.00 | 0.00 | 69 | 1015.0 |
| 20260906142033 | 30 | 149 | 0.0 | 1.6 | 0.00 | 0.00 | 0.00 | 70 | 1014.9 |
| 20260906141616 | 30 | 171 | 0.0 | 1.6 | 0.00 | 0.00 | 0.00 | 71 | 1014.9 |
| 20260906141056 | 30 | 148 | 0.0 | 1.6 | 0.00 | 0.00 | 0.00 | 72 | 1014.9 |
| 20260906140535 | 30 | 155 | 0.0 | 1.6 | 0.00 | 0.00 | 0.00 | 72 | 1014.9 |
| 20260906140035 | 30 | 160 | 0.0 | 1.6 | 0.00 | 0.00 | 0.00 | 72 | 1014.9 |
| 20260906135534 | 30 | 118 | 1.6 | 8.0 | 0.00 | 0.00 | 0.00 | 72 | 1014.9 |
| 20260906135035 | 30 | 146 | 1.6 | 3.2 | 0.00 | 0.00 | 0.00 | 72 | 1014.9 |
| 20260906134522 | 29 | 135 | 0.0 | 1.6 | 0.00 | 0.00 | 0.00 | 73 | 1014.9 |
| 20260906134104 | 29 | 148 | 1.6 | 4.8 | 0.00 | 0.00 | 0.00 | 74 | 1015.0 |
| 20260906133544 | 28 | 149 | 1.6 | 1.6 | 0.00 | 0.00 | 0.00 | 75 | 1015.2 |
| 20260906133035 | 28 | 154 | 1.6 | 3.2 | 0.00 | 0.00 | 0.00 | 76 | 1015.0 |
| 20260906132534 | 28 | 162 | 1.6 | 4.8 | 0.00 | 0.00 | 0.00 | 77 | 1015.0 |
| 20260906132054 | 27 | 167 | 0.0 | 1.6 | 0.00 | 0.00 | 0.00 | 80 | 1015.1 |
| 20260906131529 | 26 | 174 | 0.0 | 1.6 | 0.00 | 0.00 | 0.00 | 84 | 1015.0 |
| 20260906131112 | 25 | 0.0 | 0.0 | 0.00 | 0.00 | 0.00 | 87 | 1014.9 | |
| 20260906130552 | 25 | 0.0 | 0.0 | 0.00 | 0.00 | 0.00 | 88 | 1014.9 | |
| 20260906130034 | 24 | 0.0 | 0.0 | 0.00 | 0.00 | 0.00 | 89 | 1014.7 | |
| 20260906125529 | 24 | 0.0 | 0.0 | 0.00 | 0.00 | 0.00 | 89 | 1014.7 | |
| 20260906125113 | 24 | 0.0 | 0.0 | 0.00 | 0.00 | 0.00 | 89 | 1014.6 | |
| 20260906124552 | 24 | 0.0 | 0.0 | 0.00 | 0.00 | 0.00 | 88 | 1014.6 | |
| 20260906124034 | 24 | 0.0 | 0.0 | 0.00 | 0.00 | 0.00 | 88 | 1014.6 | |
| 20260906123534 | 24 | 0.0 | 0.0 | 0.00 | 0.00 | 0.00 | 88 | 1014.6 | |
| 20260906123034 | 24 | 0.0 | 0.0 | 0.00 | 0.00 | 0.00 | 88 | 1014.6 | |
| 20260906122554 | 24 | 0.0 | 0.0 | 0.00 | 0.00 | 0.00 | 88 | 1014.5 | |
| 20260906122034 | 24 | 0.0 | 0.0 | 0.00 | 0.00 | 0.00 | 88 | 1014.4 | |
| 20260906121530 | 24 | 174 | 0.0 | 1.6 | 0.00 | 0.00 | 0.00 | 88 | 1014.4 |
| 20260906121112 | 24 | 0.0 | 0.0 | 0.00 | 0.00 | 0.00 | 88 | 1014.3 | |
| 20260906120613 | 24 | 0.0 | 0.0 | 0.00 | 0.00 | 0.00 | 88 | 1014.2 | |
| 20260906120055 | 24 | 0.0 | 0.0 | 0.00 | 0.00 | 0.00 | 88 | 1014.3 | |
| 20260906115534 | 24 | 0.0 | 0.0 | 0.00 | 0.00 | 0.00 | 87 | 1014.2 | |
| 20260906115054 | 24 | 174 | 0.0 | 1.6 | 0.00 | 0.00 | 0.00 | 87 | 1014.1 |
| 20260906114535 | 24 | 175 | 0.0 | 1.6 | 0.00 | 0.00 | 0.00 | 87 | 1014.0 |
| 20260906114120 | 25 | 0.0 | 0.0 | 0.00 | 0.00 | 0.00 | 87 | 1014.1 | |
| 20260906113600 | 25 | 0.0 | 0.0 | 0.00 | 0.00 | 0.00 | 87 | 1014.1 | |
| 20260906113055 | 24 | 176 | 0.0 | 1.6 | 0.00 | 0.00 | 0.00 | 87 | 1014.0 |
| 20260906112534 | 24 | 0.0 | 0.0 | 0.00 | 0.00 | 0.00 | 87 | 1014.0 | |
| 20260906112034 | 24 | 0.0 | 0.0 | 0.00 | 0.00 | 0.00 | 87 | 1014.0 | |
| 20260906111535 | 25 | 0.0 | 0.0 | 0.00 | 0.00 | 0.00 | 87 | 1013.9 | |
| 20260906111025 | 25 | 0.0 | 0.0 | 0.00 | 0.00 | 0.00 | 87 | 1014.0 | |
| 20260906110609 | 25 | 178 | 0.0 | 1.6 | 0.00 | 0.00 | 0.00 | 86 | 1013.9 |
| 20260906110110 | 25 | 0.0 | 0.0 | 0.00 | 0.00 | 0.00 | 86 | 1013.9 | |
| 20260906105534 | 25 | 0.0 | 0.0 | 0.00 | 0.00 | 0.00 | 86 | 1013.8 | |
| 20260906105034 | 25 | 178 | 0.0 | 1.6 | 0.00 | 0.00 | 0.00 | 86 | 1013.7 |
| 20260906104534 | 25 | 178 | 0.0 | 1.6 | 0.00 | 0.00 | 0.00 | 86 | 1013.5 |
| 20260906104033 | 25 | 178 | 0.0 | 1.6 | 0.00 | 0.00 | 0.00 | 86 | 1013.7 |
| 20260906103618 | 25 | 178 | 0.0 | 1.6 | 0.00 | 0.00 | 0.00 | 86 | 1013.7 |
| 20260906103056 | 25 | 178 | 0.0 | 1.6 | 0.00 | 0.00 | 0.00 | 86 | 1013.6 |
| 20260906102534 | 25 | 178 | 0.0 | 1.6 | 0.00 | 0.00 | 0.00 | 85 | 1013.7 |
| 20260906102034 | 25 | 0.0 | 0.0 | 0.00 | 0.00 | 0.00 | 85 | 1013.7 | |
| 20260906101535 | 25 | 0.0 | 0.0 | 0.00 | 0.00 | 0.00 | 85 | 1013.6 | |
| 20260906101054 | 25 | 178 | 0.0 | 1.6 | 0.00 | 0.00 | 0.00 | 85 | 1013.6 |
| 20260906100614 | 25 | 178 | 0.0 | 1.6 | 0.00 | 0.00 | 0.00 | 85 | 1013.5 |
| 20260906100034 | 25 | 0.0 | 0.0 | 0.00 | 0.00 | 0.00 | 85 | 1013.5 | |
| 20260906095616 | 25 | 178 | 0.0 | 1.6 | 0.00 | 0.00 | 0.00 | 85 | 1013.5 |
| 20260906095057 | 25 | 178 | 0.0 | 1.6 | 0.00 | 0.00 | 0.00 | 85 | 1013.5 |
| 20260906094535 | 25 | 0.0 | 0.0 | 0.00 | 0.00 | 0.00 | 85 | 1013.5 | |
| 20260906094034 | 25 | 0.0 | 0.0 | 0.00 | 0.00 | 0.00 | 84 | 1013.4 | |
| 20260906093534 | 25 | 178 | 0.0 | 1.6 | 0.00 | 0.00 | 0.00 | 84 | 1013.4 |
| 20260906093026 | 25 | 0.0 | 0.0 | 0.00 | 0.00 | 0.00 | 84 | 1013.4 | |
| 20260906092608 | 25 | 178 | 0.0 | 1.6 | 0.00 | 0.00 | 0.00 | 84 | 1013.2 |
| 20260906092108 | 25 | 0.0 | 0.0 | 0.00 | 0.00 | 0.00 | 84 | 1013.2 | |
| 20260906091550 | 25 | 178 | 0.0 | 1.6 | 0.00 | 0.00 | 0.00 | 84 | 1013.2 |
| 20260906091112 | 26 | 178 | 0.0 | 1.6 | 0.00 | 0.00 | 0.00 | 83 | 1013.1 |
| 20260906090613 | 26 | 179 | 0.0 | 1.6 | 0.00 | 0.00 | 0.00 | 83 | 1013.0 |
| 20260906090034 | 26 | 181 | 0.0 | 1.6 | 0.00 | 0.00 | 0.00 | 83 | 1013.0 |
| 20260906085529 | 26 | 181 | 0.0 | 1.6 | 0.00 | 0.00 | 0.00 | 84 | 1012.9 |
| 20260906085112 | 26 | 0.0 | 0.0 | 0.00 | 0.00 | 0.00 | 83 | 1012.9 | |
| 20260906084552 | 26 | 0.0 | 0.0 | 0.00 | 0.00 | 0.00 | 83 | 1013.0 | |
| 20260906084033 | 26 | 0.0 | 0.0 | 0.00 | 0.00 | 0.00 | 82 | 1013.0 | |
| 20260906083617 | 26 | 182 | 0.0 | 1.6 | 0.00 | 0.00 | 0.00 | 81 | 1013.1 |
| 20260906083035 | 26 | 182 | 0.0 | 1.6 | 0.00 | 0.00 | 0.00 | 81 | 1013.1 |
| 20260906082541 | 26 | 182 | 0.0 | 1.6 | 0.00 | 0.00 | 0.00 | 82 | 1013.0 |
| 20260906082105 | 26 | 182 | 0.0 | 1.6 | 0.00 | 0.00 | 0.00 | 81 | 1013.0 |
| 20260906081545 | 26 | 0.0 | 0.0 | 0.00 | 0.00 | 0.00 | 81 | 1012.9 | |
| 20260906081034 | 26 | 183 | 1.6 | 3.2 | 0.00 | 0.00 | 0.00 | 80 | 1012.9 |
| 20260906080521 | 26 | 180 | 1.6 | 1.6 | 0.00 | 0.00 | 0.00 | 80 | 1012.8 |
| 20260906080105 | 26 | 179 | 1.6 | 1.6 | 0.00 | 0.00 | 0.00 | 80 | 1013.0 |
| 20260906075544 | 26 | 179 | 1.6 | 1.6 | 0.00 | 0.00 | 0.00 | 80 | 1013.1 |
| 20260906075025 | 26 | 179 | 1.6 | 1.6 | 0.00 | 0.00 | 0.00 | 80 | 1013.3 |
| 20260906074628 | 26 | 178 | 0.0 | 1.6 | 0.00 | 0.00 | 0.00 | 81 | 1013.4 |
| 20260906074048 | 26 | 178 | 0.0 | 1.6 | 0.00 | 0.00 | 0.00 | 81 | 1013.4 |
| 20260906073529 | 26 | 178 | 0.0 | 1.6 | 0.00 | 0.00 | 0.00 | 81 | 1013.5 |
| 20260906073112 | 26 | 0.0 | 0.0 | 0.00 | 0.00 | 0.00 | 81 | 1013.5 | |
| 20260906072552 | 26 | 0.0 | 0.0 | 0.00 | 0.00 | 0.00 | 82 | 1013.4 | |
| 20260906072033 | 26 | 178 | 0.0 | 1.6 | 0.00 | 0.00 | 0.00 | 82 | 1013.3 |
| 20260906071617 | 26 | 178 | 0.0 | 1.6 | 0.00 | 0.00 | 0.00 | 82 | 1013.2 |
| 20260906071056 | 26 | 0.0 | 0.0 | 0.00 | 0.00 | 0.00 | 82 | 1013.2 | |
| 20260906070534 | 26 | 0.0 | 0.0 | 0.00 | 0.00 | 0.00 | 81 | 1013.1 | |
| 20260906070121 | 26 | 0.0 | 0.0 | 0.00 | 0.00 | 0.00 | 82 | 1013.1 | |
| 20260906065600 | 26 | 0.0 | 0.0 | 0.00 | 0.00 | 0.00 | 82 | 1013.4 | |
| 20260906065034 | 26 | 0.0 | 0.0 | 0.00 | 0.00 | 0.00 | 81 | 1013.4 | |
| 20260906064534 | 26 | 0.0 | 0.0 | 0.00 | 0.00 | 0.00 | 81 | 1013.5 | |
| 20260906064121 | 26 | 0.0 | 0.0 | 0.00 | 0.00 | 0.00 | 81 | 1013.6 | |
| 20260906063600 | 26 | 0.0 | 0.0 | 0.00 | 0.00 | 0.00 | 80 | 1013.6 | |
| 20260906063034 | 26 | 0.0 | 0.0 | 0.00 | 0.00 | 0.00 | 80 | 1013.5 | |
| 20260906062534 | 27 | 0.0 | 0.0 | 0.00 | 0.00 | 0.00 | 79 | 1013.6 | |
| 20260906062033 | 27 | 0.0 | 0.0 | 0.00 | 0.00 | 0.00 | 78 | 1013.5 | |
| 20260906061616 | 27 | 178 | 0.0 | 1.6 | 0.00 | 0.00 | 0.00 | 77 | 1013.4 |
| 20260906061057 | 27 | 178 | 0.0 | 1.6 | 0.00 | 0.00 | 0.00 | 77 | 1013.5 |
| 20260906060535 | 27 | 178 | 0.0 | 1.6 | 0.00 | 0.00 | 0.00 | 76 | 1013.5 |
| 20260906060121 | 27 | 178 | 0.0 | 1.6 | 0.00 | 0.00 | 0.00 | 75 | 1013.6 |
| 20260906055601 | 28 | 178 | 1.6 | 1.6 | 0.00 | 0.00 | 0.00 | 75 | 1013.6 |
| 20260906055040 | 28 | 177 | 1.6 | 1.6 | 0.00 | 0.00 | 0.00 | 74 | 1013.7 |
| 20260906054535 | 28 | 174 | 1.6 | 1.6 | 0.00 | 0.00 | 0.00 | 74 | 1013.6 |
| 20260906054034 | 28 | 174 | 1.6 | 1.6 | 0.00 | 0.00 | 0.00 | 74 | 1013.7 |
| 20260906053535 | 28 | 174 | 0.0 | 1.6 | 0.00 | 0.00 | 0.00 | 73 | 1013.6 |
| 20260906053026 | 28 | 174 | 0.0 | 1.6 | 0.00 | 0.00 | 0.00 | 73 | 1013.6 |
| 20260906052609 | 28 | 174 | 0.0 | 1.6 | 0.00 | 0.00 | 0.00 | 74 | 1013.6 |
| 20260906052049 | 27 | 174 | 0.0 | 1.6 | 0.00 | 0.00 | 0.00 | 74 | 1013.6 |
| 20260906051535 | 27 | 0.0 | 0.0 | 0.00 | 0.00 | 0.00 | 75 | 1013.7 | |
| 20260906051034 | 27 | 0.0 | 0.0 | 0.00 | 0.00 | 0.00 | 75 | 1013.7 | |
| 20260906050555 | 27 | 0.0 | 0.0 | 0.00 | 0.00 | 0.00 | 74 | 1013.6 | |
| 20260906050118 | 28 | 0.0 | 0.0 | 0.00 | 0.00 | 0.00 | 73 | 1013.7 | |
| 20260906045555 | 28 | 0.0 | 0.0 | 0.00 | 0.00 | 0.00 | 72 | 1013.6 | |
| 20260906045034 | 28 | 0.0 | 0.0 | 0.00 | 0.00 | 0.00 | 72 | 1013.6 | |
| 20260906044535 | 28 | 0.0 | 0.0 | 0.00 | 0.00 | 0.00 | 71 | 1013.5 | |
| 20260906044034 | 28 | 174 | 0.0 | 1.6 | 0.00 | 0.00 | 0.00 | 71 | 1013.5 |
| 20260906043534 | 28 | 170 | 0.0 | 1.6 | 0.00 | 0.00 | 0.00 | 71 | 1013.4 |
| 20260906043035 | 28 | 0.0 | 0.0 | 0.00 | 0.00 | 0.00 | 71 | 1013.5 | |
| 20260906042534 | 29 | 0.0 | 0.0 | 0.00 | 0.00 | 0.00 | 70 | 1013.4 | |
| 20260906042055 | 29 | 178 | 1.6 | 3.2 | 0.00 | 0.00 | 0.00 | 70 | 1013.4 |
| 20260906041535 | 29 | 178 | 0.0 | 1.6 | 0.00 | 0.00 | 0.00 | 69 | 1013.5 |
| 20260906041035 | 29 | 176 | 0.0 | 1.6 | 0.00 | 0.00 | 0.00 | 69 | 1013.4 |
| 20260906040534 | 29 | 174 | 0.0 | 1.6 | 0.00 | 0.00 | 0.00 | 68 | 1013.3 |
| 20260906040035 | 30 | 166 | 0.0 | 3.2 | 0.00 | 0.00 | 0.00 | 68 | 1013.4 |
| 20260906035535 | 30 | 186 | 0.0 | 3.2 | 0.00 | 0.00 | 0.00 | 67 | 1013.5 |
| 20260906035034 | 30 | 174 | 1.6 | 3.2 | 0.00 | 0.00 | 0.00 | 66 | 1013.4 |
| 20260906034535 | 30 | 179 | 1.6 | 3.2 | 0.00 | 0.00 | 0.00 | 66 | 1013.4 |
| 20260906034034 | 30 | 173 | 0.0 | 1.6 | 0.00 | 0.00 | 0.00 | 66 | 1013.4 |
| 20260906033534 | 30 | 173 | 1.6 | 3.2 | 0.00 | 0.00 | 0.00 | 65 | 1013.4 |
| 20260906033034 | 30 | 179 | 1.6 | 1.6 | 0.00 | 0.00 | 0.00 | 65 | 1013.4 |
| 20260906032535 | 30 | 177 | 0.0 | 1.6 | 0.00 | 0.00 | 0.00 | 64 | 1013.5 |
| 20260906032035 | 30 | 181 | 1.6 | 3.2 | 0.00 | 0.00 | 0.00 | 63 | 1013.4 |
| 20260906031535 | 30 | 178 | 1.6 | 3.2 | 0.00 | 0.00 | 0.00 | 63 | 1013.3 |
| 20260906031035 | 30 | 186 | 1.6 | 3.2 | 0.00 | 0.00 | 0.00 | 63 | 1013.2 |
| 20260906030534 | 31 | 174 | 1.6 | 4.8 | 0.00 | 0.00 | 0.00 | 63 | 1013.3 |
| 20260906030035 | 31 | 180 | 1.6 | 3.2 | 0.00 | 0.00 | 0.00 | 61 | 1013.2 |
| 20260906025550 | 31 | 183 | 3.2 | 3.2 | 0.00 | 0.00 | 0.00 | 61 | 1013.2 |
| 20260906025113 | 31 | 179 | 3.2 | 4.8 | 0.00 | 0.00 | 0.00 | 60 | 1013.2 |
| 20260906024553 | 31 | 187 | 3.2 | 4.8 | 0.00 | 0.00 | 0.00 | 59 | 1013.1 |
| 20260906024115 | 31 | 184 | 3.2 | 4.8 | 0.00 | 0.00 | 0.00 | 59 | 1013.0 |
| 20260906023535 | 31 | 181 | 1.6 | 4.8 | 0.00 | 0.00 | 0.00 | 59 | 1012.9 |
| 20260906023035 | 31 | 171 | 1.6 | 3.2 | 0.00 | 0.00 | 0.00 | 58 | 1012.7 |
| 20260906022535 | 31 | 181 | 1.6 | 3.2 | 0.00 | 0.00 | 0.00 | 57 | 1012.7 |
| 20260906022034 | 30 | 192 | 1.6 | 4.8 | 0.00 | 0.00 | 0.00 | 56 | 1012.6 |
| 20260906021536 | 30 | 0.0 | 0.0 | 0.00 | 0.00 | 0.00 | 55 | 1012.5 | |
| 20260906021034 | 30 | 0.0 | 0.0 | 0.00 | 0.00 | 0.00 | 55 | 1012.4 | |
| 20260906020534 | 30 | 0.0 | 0.0 | 0.00 | 0.00 | 0.00 | 54 | 1012.3 | |
| 20260906020034 | 31 | 0.0 | 0.0 | 0.00 | 0.00 | 0.00 | 54 | 1012.1 | |
| 20260906015534 | 31 | 0.0 | 0.0 | 0.00 | 0.00 | 0.00 | 54 | 1012.1 | |
| 20260906015035 | 31 | 0.0 | 0.0 | 0.00 | 0.00 | 0.00 | 54 | 1012.0 | |
| 20260906014534 | 31 | 0.0 | 0.0 | 0.00 | 0.00 | 0.00 | 53 | 1011.9 | |
| 20260906014034 | 31 | 149 | 0.0 | 1.6 | 0.00 | 0.00 | 0.00 | 53 | 1012.0 |
| 20260906013534 | 31 | 0.0 | 0.0 | 0.00 | 0.00 | 0.00 | 53 | 1011.9 | |
| 20260906013034 | 31 | 0.0 | 0.0 | 0.00 | 0.00 | 0.00 | 54 | 1011.9 | |
| 20260906012534 | 31 | 0.0 | 0.0 | 0.00 | 0.00 | 0.00 | 54 | 1011.8 | |
| 20260906012034 | 31 | 0.0 | 0.0 | 0.00 | 0.00 | 0.00 | 53 | 1011.7 | |
| 20260906011535 | 31 | 0.0 | 0.0 | 0.00 | 0.00 | 0.00 | 53 | 1011.7 | |
| 20260906011035 | 31 | 0.0 | 0.0 | 0.00 | 0.00 | 0.00 | 53 | 1011.7 | |
| 20260906010534 | 32 | 0.0 | 0.0 | 0.00 | 0.00 | 0.00 | 52 | 1011.7 | |
| 20260906010035 | 32 | 0.0 | 0.0 | 0.00 | 0.00 | 0.00 | 51 | 1011.7 | |
| 20260906005534 | 32 | 0.0 | 0.0 | 0.00 | 0.00 | 0.00 | 50 | 1011.6 | |
| 20260906005025 | 33 | 0.0 | 0.0 | 0.00 | 0.00 | 0.00 | 50 | 1011.6 | |
| 20260906004629 | 33 | 0.0 | 0.0 | 0.00 | 0.00 | 0.00 | 49 | 1011.7 | |
| 20260906004049 | 33 | 148 | 0.0 | 1.6 | 0.00 | 0.00 | 0.00 | 48 | 1011.5 |
| 20260906003554 | 34 | 155 | 0.0 | 1.6 | 0.00 | 0.00 | 0.00 | 47 | 1011.6 |
| 20260906003035 | 34 | 139 | 1.6 | 8.0 | 0.00 | 0.00 | 0.00 | 47 | 1011.5 |
| 20260906002534 | 34 | 144 | 1.6 | 3.2 | 0.00 | 0.00 | 0.00 | 46 | 1011.5 |
| 20260906002054 | 35 | 140 | 1.6 | 4.8 | 0.00 | 0.00 | 0.00 | 46 | 1011.5 |
| 20260906001637 | 35 | 143 | 1.6 | 3.2 | 0.00 | 0.00 | 0.00 | 45 | 1011.5 |
| 20260906001057 | 35 | 133 | 1.6 | 8.0 | 0.00 | 0.00 | 0.00 | 45 | 1011.5 |
| 20260906000535 | 35 | 157 | 1.6 | 8.0 | 0.00 | 0.00 | 0.00 | 45 | 1011.5 |
| 20260906000035 | 35 | 159 | 1.6 | 3.2 | 0.00 | 0.00 | 0.00 | 45 | 1011.4 |
| 20260905235534 | 35 | 161 | 0.0 | 1.6 | 0.00 | 0.00 | 0.00 | 44 | 1011.4 |
| 20260905235034 | 36 | 178 | 1.6 | 3.2 | 0.00 | 0.00 | 0.00 | 43 | 1011.2 |
| 20260905234615 | 36 | 158 | 0.0 | 1.6 | 0.00 | 0.00 | 0.00 | 42 | 1011.3 |
| 20260905234034 | 36 | 145 | 0.0 | 1.6 | 0.00 | 0.00 | 0.00 | 42 | 1011.4 |
| 20260905233554 | 37 | 131 | 1.6 | 3.2 | 0.00 | 0.00 | 0.00 | 41 | 1011.2 |
| 20260905233054 | 37 | 151 | 1.6 | 3.2 | 0.00 | 0.00 | 0.00 | 39 | 1011.3 |
| 20260905232534 | 37 | 98 | 1.6 | 4.8 | 0.00 | 0.00 | 0.00 | 40 | 1011.2 |
| 20260905232034 | 37 | 127 | 1.6 | 4.8 | 0.00 | 0.00 | 0.00 | 39 | 1011.2 |
| 20260905231535 | 37 | 162 | 1.6 | 4.8 | 0.00 | 0.00 | 0.00 | 39 | 1011.3 |
| 20260905231035 | 38 | 153 | 0.0 | 3.2 | 0.00 | 0.00 | 0.00 | 38 | 1011.1 |
| 20260905230534 | 37 | 173 | 1.6 | 1.6 | 0.00 | 0.00 | 0.00 | 38 | 1011.2 |
| 20260905230035 | 38 | 174 | 1.6 | 3.2 | 0.00 | 0.00 | 0.00 | 39 | 1011.1 |
| 20260905225534 | 37 | 173 | 0.0 | 1.6 | 0.00 | 0.00 | 0.00 | 39 | 1011.3 |
| 20260905225134 | 37 | 185 | 0.0 | 1.6 | 0.00 | 0.00 | 0.00 | 40 | 1011.2 |
| 20260905224535 | 37 | 177 | 1.6 | 3.2 | 0.00 | 0.00 | 0.00 | 40 | 1011.2 |
| 20260905224054 | 37 | 157 | 3.2 | 8.0 | 0.00 | 0.00 | 0.00 | 40 | 1011.2 |